User: anonymous   Login
Location: Montauk Point State Park
(41.0718°N, 71.8593°W)
Time: 14:47:43
(UTC-04:00)
Language:

Cosmos 1844 - Orbit

View from above orbital plane
View from above orbital plane
View from above satellite
View from above satellite

Ground track
Ground track

The orbit data is extracted from the following two-line orbital elements,

1 17973U 87041A   16120.30121854  .00000211  00000-0  13556-3 0  9998
2 17973  70.9004  65.8367 0030221  22.7944 337.4511 14.14032523494635
Epoch (UTC): 29 April 2016 07:13:45
Eccentricity: 0.0030221
inclination: 70.9004°
perigee height: 824 km
apogee height: 867 km
right ascension of ascending node: 65.8367°
argument of perigee: 22.7944°
revolutions per day: 14.14032523
mean anomaly at epoch: 337.4511°
orbit number at epoch: 49463

The dashed part of the orbit path shows where the satellite is in the earth's shadow,  

DLR